Location: Strohbehn Observatory
(42.4649°N, 93.8239°W)
Time: 13:27:46
(UTC-05:00)

Daily predictions for brighter satellites

Satellite Brightness Start Highest point End
(mag) Time Altitude Azimuth Time Altitude Azimuth Time Altitude Azimuth
Cosmos 773 Rocket 4.1 21:23:23 10° NNW 21:28:35 71° ENE 21:33:48 10° SSE
ALOS 3.7 21:25:47 10° SSW 21:30:07 38° W 21:34:29 10° NNW
Cosmos 2151 3.7 21:28:47 10° SSE 21:32:34 33° E 21:36:21 10° NNE
Cosmos 968 Rocket 4.2 21:34:50 10° SSW 21:39:57 58° WNW 21:45:08 10° NNE
Cosmos 1726 4.1 21:37:59 10° NNE 21:40:23 16° ENE 21:42:46 10° ESE
Tiangong 1 2.9 21:38:41 10° S 21:40:27 14° SSE 21:42:13 10° ESE
DELTA 2 R/B(2) 4.4 21:40:03 10° SW 21:41:25 21° SSE 21:43:12 10° ESE
Cosmos 2219 3.8 21:36:42 10° S 21:41:55 37° ESE 21:47:09 10° NE
NOSS 3-1 (A) 4.4 21:39:28 10° SSE 21:44:00 24° ESE 21:48:52 10° ENE
Cosmos 1441 Rocket 3.7 21:41:29 10° SSW 21:45:14 62° WNW 21:48:58 10° N
Cosmos 2266 Rocket 4.0 21:39:59 10° S 21:46:15 71° E 21:52:26 10° NNE
Cosmos 1151 Rocket 3.0 21:42:30 10° N 21:46:49 72° E 21:51:08 10° SSE
Cosmos 2315 Rocket 4.3 21:41:36 10° N 21:47:37 49° ENE 21:53:34 10° SSE
Cosmos 2237 Rocket 4.2 21:45:22 10° N 21:48:51 16° NE 21:52:19 10° E
SPOT 5 2.9 21:44:30 10° SSE 21:49:01 68° ENE 21:53:48 10° N
AVUM R/B 2.8 21:47:23 10° SSW 21:49:41 68° WNW 21:52:14 10° NNE
Cosmos 2322 3.8 21:44:11 10° NNW 21:49:56 77° ENE 21:55:37 10° SSE
Cosmos 2322 Rocket 3.5 21:47:04 10° NW 21:52:09 36° WSW 21:57:12 10° S
Cosmos 2058 3.7 21:49:22 10° SSE 21:53:02 33° E 21:56:45 10° NNE
Cosmos 1805 Rocket 4.3 21:50:23 10° SSE 21:54:25 35° E 21:58:29 10° NNE
PSLV R/B 3.1 21:54:36 11° SSE 21:57:34 73° ENE 22:00:38 10° N
Cosmos 2360 Rocket 2.3 21:56:14 10° NNW 22:01:55 84° WSW 22:07:20 11° SSE
Cosmos 1437 2.7 21:59:25 10° S 22:02:41 73° E 22:05:59 10° NNE
Envisat 3.3 21:57:42 10° S 22:02:45 71° WSW 22:07:51 10° NNW
SL-16 R/B 3.7 21:57:57 10° NW 22:02:55 32° WSW 22:07:51 10° SSW
Cosmos 304 Rocket 3.8 22:00:45 10° NNW 22:05:35 84° WSW 22:10:03 12° SSE
Cosmos 1908 3.9 22:01:55 10° NNW 22:05:45 56° W 22:09:34 10° S
ERS-1 Rocket 4.3 22:02:03 10° SSW 22:06:43 38° W 22:11:24 10° NNW
ATLAS 2AS CENTAUR R/B 4.3 22:03:26 13° SE 22:06:49 17° ESE 22:11:27 10° ENE
Meteor 1-4 Rocket 4.2 22:04:49 10° NNE 22:07:49 22° ENE 22:09:49 15° ESE
Aureole 3 4.4 22:04:05 10° S 22:10:51 77° E 22:16:15 10° NNE
H-2A R/B 3.3 22:06:50 10° S 22:11:07 42° W 22:15:25 10° NNW
MetOp-B 4.1 22:05:52 10° SSE 22:11:12 86° ENE 22:16:35 10° NNW
Cosmos 1707 Rocket 3.9 22:08:01 10° N 22:12:16 50° E 22:15:29 17° SSE
SL-23 DEB 3.9 22:08:23 10° WNW 22:13:38 82° SW 22:16:05 19° SE
Cosmos 2112 Rocket 4.0 22:08:28 10° NNW 22:13:44 88° WSW 22:18:17 14° SSE
Cosmos 1666 Rocket 4.0 22:13:17 14° SSE 22:16:45 45° E 22:20:59 10° NNE
Cosmos 1674 3.8 22:14:54 10° SSW 22:18:34 44° WNW 22:22:18 10° N
Cosmos 2298 Rocket 4.3 22:14:55 10° S 22:20:01 49° ESE 22:25:08 10° NNE
Cosmos 1626 4.2 22:20:38 12° E 22:21:14 13° E 22:22:53 10° ENE
Meteor 1-11 4.3 22:16:49 10° S 22:22:30 62° E 22:28:09 10° NNE
ATLAS 3B R/B 4.4 22:17:15 10° NNW 22:22:58 25° NNE 22:28:24 10° E
Cosmos 1937 Rocket 4.3 22:20:01 17° SSE 22:23:18 31° E 22:27:51 10° NE
DELTA 2 R/B (1) 4.1 22:18:54 10° W 22:24:06 42° SSW 22:27:37 19° SE
Landsat 7 4.5 22:22:40 18° SE 22:25:45 41° ENE 22:30:13 10° N
Cosmos 292 Rocket 4.4 22:24:05 10° N 22:28:37 41° ENE 22:31:27 20° SE
Cosmos 2227 Rocket 3.4 22:27:04 19° SE 22:29:16 23° E 22:33:38 10° NE
Cosmos 1300 2.6 22:25:37 10° N 22:29:29 80° E 22:31:57 21° SSE
NOSS 3-1 (C) 3.3 22:24:56 10° SSW 22:30:43 68° ESE 22:37:09 10° NE
YAOGAN 6 3.3 22:35:21 16° S 22:38:04 51° W 22:41:37 10° NNW
Cosmos 2333 Rocket 3.1 22:34:12 10° NNW 22:39:36 40° ENE 22:43:13 19° ESE
Terra 2.5 22:39:02 22° SE 22:41:36 42° ENE 22:46:05 10° N
SL-16 R/B 4.1 22:37:45 10° N 22:41:39 19° NE 22:45:33 10° E
H-2A R/B 2.5 22:39:08 22° SE 22:42:23 51° ENE 22:47:40 10° N
NOSS 0 Rocket 4.3 22:39:26 10° NNW 22:45:27 52° ENE 22:49:18 22° SE
COSMOS 2428 2.9 22:45:45 10° NNW 22:51:24 69° WSW 22:55:02 23° S
CZ-4B R/B 4.0 22:46:18 10° N 22:51:32 63° WNW 22:56:39 10° SSW
Cosmos 1455 3.2 22:48:43 10° NNE 22:52:10 32° ENE 22:53:11 27° ESE
Delta 2 Rocket 4.1 22:49:46 10° WSW 22:52:08 24° SSW 22:52:08 24° SSW
SPOT 1/Viking Rocket 4.1 22:50:46 16° S 22:54:42 53° W 22:59:46 10° NNW
Cosmos 2297 Rocket 3.2 22:55:00 24° SE 22:56:25 27° ESE 23:01:06 10° NE
OAO 2 Rocket 4.2 22:52:07 10° SW 22:56:40 29° SSE 22:57:14 28° SSE
Cosmos 2242 Rocket 3.6 22:54:51 10° N 22:59:20 85° W 23:01:40 28° S
CZ-4 R/B 4.1 22:55:08 10° N 23:00:04 70° WNW 23:04:32 12° SSW
Cosmos 1869 4.3 22:57:10 10° N 23:00:54 34° ENE 23:01:58 29° ESE
Cosmos 2219 Rocket 2.2 22:58:00 10° NNW 23:03:37 77° ENE 23:06:29 30° SSE
ARGOS 3.7 22:59:48 19° S 23:03:37 55° W 23:08:56 10° NNW
CZ-4C R/B 3.1 23:02:30 37° S 23:03:42 71° WSW 23:07:11 10° NNW
Cosmos 1898 Rocket 3.5 22:59:26 10° SSW 23:04:37 79° WNW 23:09:51 10° NNE
SAR-Lupe-2 3.7 23:06:09 44° SE 23:07:01 60° ENE 23:10:34 10° N
Cosmos 2150 Rocket 4.3 23:03:45 10° SSW 23:09:11 72° WNW 23:14:40 10° NNE
Cosmos 1862 Rocket 3.7 23:06:35 10° N 23:10:53 57° E 23:12:14 39° SE
DELTA 2 DEB (DPAF) 4.4 23:09:36 28° S 23:11:50 62° WSW 23:16:18 10° NNW
CARTOSAT-1 3.5 23:11:16 37° SSE 23:12:58 90° WSW 23:17:19 10° NNW
Sich 1 3.9 23:11:22 14° SSW 23:14:55 47° WNW 23:19:11 10° N
SeaSat 1 3.9 23:12:26 17° E 23:15:10 27° NE 23:19:17 10° N
Cosmos 1726 3.5 23:12:26 10° NNW 23:15:52 33° W 23:17:46 21° SW
Tiangong 1 2.8 23:13:35 10° WSW 23:14:50 21° SW 23:14:50 21° SW
Cosmos 1633 Rocket 3.9 23:13:56 15° SSW 23:17:17 46° WNW 23:21:31 10° N
Cosmos 1980 3.7 23:15:13 10° NNW 23:20:53 76° ENE 23:23:22 35° SE
Lacrosse 4 Rocket 3.2 23:19:00 10° N 23:22:40 25° NE 23:24:39 18° E
Cosmos 1271 Rocket 3.6 23:21:53 10° NNW 23:25:32 42° W 23:26:53 30° SW
DMSP B5D2-2 4.0 23:20:41 10° NNE 23:25:56 90° E 23:28:44 28° SSW
Cosmos 1703 4.0 23:25:25 25° SW 23:27:21 48° W 23:31:10 10° N
Cosmos 2237 Rocket 2.1 23:28:01 10° NNW 23:33:46 88° ENE 23:36:00 39° SSE
NOSS 3-1 (A) 3.9 23:28:23 10° SW 23:34:15 61° NW 23:40:49 10° NNE
Cosmos 2082 3.6 23:34:34 28° SSW 23:37:46 82° ESE 23:43:31 10° NNE
Cosmos 1869 Rocket 4.4 23:39:09 34° E 23:39:29 35° E 23:43:33 10° NNE
Meteor 1-4 Rocket 4.5 23:39:56 10° NW 23:42:57 23° W 23:44:12 19° WSW
ERBS 2.9 23:45:24 50° ENE 23:45:24 50° ENE 23:48:05 10° NE
COSMOS 2455 3.2 23:41:00 10° NNW 23:46:58 58° NE 23:49:34 33° ESE
Cosmos 1241 Rocket 4.4 23:43:50 16° SSW 23:48:51 84° WNW 23:55:10 10° NNE
ALOS 2 4.2 23:48:22 22° E 23:49:22 23° ENE 23:52:51 10° NNE
H-2A R/B 4.3 23:47:12 10° NE 23:49:51 20° E 23:49:51 20° E
Cosmos 468 4.5 23:46:26 10° NNW 23:51:49 84° ENE 23:53:22 48° SSE
Cosmos 1626 3.2 23:55:19 34° WSW 23:56:14 41° WNW 23:59:50 10° N
